TimeCST,TemperatureF,Dew PointF,Humidity,Sea Level PressureIn,VisibilityMPH,Wind Direction,Wind SpeedMPH,Gust SpeedMPH,PrecipitationIn,Events,Conditions,WindDirDegrees,DateUTC
12:51 AM,60.1,59.0,96,30.25,8.0,NNE,3.5,-,N/A,,Clear,20,2012-11-30 06:51:00
1:51 AM,60.1,59.0,96,30.25,8.0,NNE,4.6,-,N/A,,Clear,30,2012-11-30 07:51:00
2:51 AM,60.1,57.9,93,30.24,9.0,NNE,5.8,-,N/A,,Clear,30,2012-11-30 08:51:00
3:51 AM,60.1,57.9,93,30.24,8.0,NE,6.9,-,N/A,,Clear,40,2012-11-30 09:51:00
4:51 AM,60.1,57.9,93,30.23,8.0,NE,8.1,-,N/A,,Clear,40,2012-11-30 10:51:00
5:51 AM,60.1,59.0,96,30.24,8.0,NE,6.9,-,N/A,,Clear,40,2012-11-30 11:51:00
6:51 AM,60.1,59.0,96,30.25,5.0,NE,6.9,-,N/A,,Clear,40,2012-11-30 12:51:00
7:51 AM,63.0,61.0,93,30.26,4.0,NNE,6.9,-,N/A,,Scattered Clouds,30,2012-11-30 13:51:00
8:51 AM,64.0,62.1,93,30.27,5.0,NE,5.8,-,N/A,,Scattered Clouds,50,2012-11-30 14:51:00
9:51 AM,66.0,62.1,87,30.28,6.0,NE,8.1,-,N/A,,Clear,40,2012-11-30 15:51:00
10:51 AM,68.0,63.0,84,30.27,6.0,NNE,5.8,-,N/A,,Haze,30,2012-11-30 16:51:00
11:51 AM,66.9,63.0,87,30.25,7.0,NNE,6.9,-,N/A,,Scattered Clouds,30,2012-11-30 17:51:00
12:51 PM,68.0,63.0,84,30.22,7.0,NNE,8.1,-,N/A,,Clear,30,2012-11-30 18:51:00
1:51 PM,68.0,64.0,87,30.20,6.0,NE,6.9,-,N/A,,Clear,40,2012-11-30 19:51:00
2:51 PM,68.0,64.0,87,30.19,6.0,NE,8.1,-,N/A,,Clear,40,2012-11-30 20:51:00
3:51 PM,66.0,63.0,90,30.20,5.0,NNE,8.1,-,N/A,,Partly Cloudy,30,2012-11-30 21:51:00
4:51 PM,64.0,63.0,96,30.20,3.0,NNE,5.8,-,N/A,,Scattered Clouds,30,2012-11-30 22:51:00
5:51 PM,63.0,63.0,100,30.20,4.0,NE,5.8,-,N/A,,Clear,40,2012-11-30 23:51:00
6:05 PM,62.6,62.6,100,30.21,3.0,NE,4.6,-,N/A,,Partly Cloudy,40,2012-12-01 00:05:00
6:51 PM,63.0,63.0,100,30.22,3.0,NE,4.6,-,N/A,,Partly Cloudy,40,2012-12-01 00:51:00
7:51 PM,63.0,63.0,100,30.23,3.0,NE,4.6,-,N/A,,Clear,50,2012-12-01 01:51:00
8:51 PM,63.0,63.0,100,30.23,3.0,NE,4.6,-,N/A,,Clear,40,2012-12-01 02:51:00
9:17 PM,62.6,62.6,100,30.23,2.5,NE,5.8,-,N/A,,Clear,50,2012-12-01 03:17:00
9:32 PM,62.6,62.6,100,30.23,3.0,ENE,5.8,-,N/A,,Clear,70,2012-12-01 03:32:00
9:51 PM,63.0,63.0,100,30.23,4.0,ENE,5.8,-,N/A,,Clear,70,2012-12-01 03:51:00
10:51 PM,63.0,62.1,97,30.22,8.0,East,6.9,-,N/A,,Clear,80,2012-12-01 04:51:00
11:51 PM,63.0,61.0,93,30.21,10.0,ENE,6.9,-,N/A,,Clear,70,2012-12-01 05:51:00